Back to catalog

SL-6 DEB

LostHEO
NORAD 48265·DEBRIS·🇷🇺 Russia

Launched Dec 23, 1981 from Baikonur Cosmodrome

Loading…

Next Passes (next 24 hours)

TLE

StaleSource: Space-Track

Epoch: Jul 14, 2026, 06:32 UTC

1 48265U 81123E   26195.27247096 -.00000082  00000-0  00000-0 0  9991
2 48265  62.3491  58.3257 7139450 277.4104 322.8905  2.19410724101322

Track SL-6 DEB in real time with AllMySat

Download on the App Store